FLOCK 3R-8 (43727 NORAD) Tracking and Keplerian Element Data

This shows tracking and keplerian element data for the satellite.

Feedback or suggestion? Click here.




ElementValue
Catalog43727
NameFLOCK 3R-8
Epoch Orbit457
Epoch Day363.19212093
Epoch Year2018
RAAN68.2173
Inclination97.4822
Eccentricity0.0017909
Argument of Perigee215.2611
Mean Anonmoly144.7444
Mean Motion15.2613215
Decay Rate9.84E-06
L11 43727U 18096J 18363.19212093 .00000984 00000-0 40873-4 0 9992
L22 43727 97.4822 68.2173 0017909 215.2611 144.7444 15.26132150 4578

Live tracking and technical data element details for FLOCK 3R-8 (NORAD 43727). FLOCK 3R-8 can be tracked NOW for your location showing map with azimuth and elevation plus other details from your city location.

Track the satellite on the map from your city or location and see movement details for azimuth, elevation, latitude, longitude, range, height, and movement on the map or in text.







IsCatalogInMostPopularTable: catalog: 43727, numindb: 69
Update: records affected: 1



GetName: 43727 FLOCK 3R-8

Hit Count: updated at: Mon, 27 May 2019 02:59:32 GMT